User: anonymous   Login
Location: Unspecified
(0.0000°N, 0.0000°E)
Time: 23:48:52
(UTC+00:00)
Language:

FENGYUN 1C DEB - Orbit

View from above orbital plane
View from above orbital plane
View from above satellite
View from above satellite

Ground track
Ground track

The orbit data is extracted from the following two-line orbital elements,

1 30362U 99025ABZ 21340.23836994  .00001059  00000-0  74293-3 0  9996
2 30362  99.0388 250.6553 0110911  96.0007 265.3808 13.97528421755870
Epoch (UTC): 06 December 2021 05:43:15
Eccentricity: 0.0110911
inclination: 99.0388°
perigee height: 821 km
apogee height: 983 km
right ascension of ascending node: 250.6553°
argument of perigee: 96.0007°
revolutions per day: 13.97528421
mean anomaly at epoch: 265.3808°
orbit number at epoch: 75587

The dashed part of the orbit path shows where the satellite is in the earth's shadow,  

DLR